<?xml version="1.0" encoding="UTF-8" standalone="no" ?>
<gpx xmlns="http://www.topografix.com/GPX/1/1" xmlns:xsi="http://www.w3.org/2001/XMLSchema-instance" xsi:schemaLocation="http://www.topografix.com/GPX/1/1 http://www.topografix.com/GPX/1/1/gpx.xsd" version="1.1" creator="VisuGPX - https://www.visugpx.com">
  <metadata>
    <name>Gazeran otsi </name>
    <desc><![CDATA[Otsi le 10 juillet 2018
 Gazeran Départ et arrivée du cimetiere]]></desc>
  </metadata>
  <trk>
    <name><![CDATA[20180709072556-alorl]]></name>
    <trkseg>
      <trkpt lat="48.63177" lon="1.76636">
        <ele>168</ele>
      </trkpt>
      <trkpt lat="48.63011" lon="1.76741">
        <ele>167</ele>
      </trkpt>
      <trkpt lat="48.62896" lon="1.76743">
        <ele>168</ele>
      </trkpt>
      <trkpt lat="48.6272" lon="1.76668">
        <ele>163</ele>
      </trkpt>
      <trkpt lat="48.62666" lon="1.76374">
        <ele>164</ele>
      </trkpt>
      <trkpt lat="48.62608" lon="1.7631">
        <ele>164</ele>
      </trkpt>
      <trkpt lat="48.6252" lon="1.76221">
        <ele>159</ele>
      </trkpt>
      <trkpt lat="48.62526" lon="1.76043">
        <ele>155</ele>
      </trkpt>
      <trkpt lat="48.62635" lon="1.75967">
        <ele>159</ele>
      </trkpt>
      <trkpt lat="48.62658" lon="1.75904">
        <ele>162</ele>
      </trkpt>
      <trkpt lat="48.62699" lon="1.75826">
        <ele>161</ele>
      </trkpt>
      <trkpt lat="48.62694" lon="1.75694">
        <ele>159</ele>
        <time>2010-01-01T00:00:00Z</time>
      </trkpt>
      <trkpt lat="48.62689" lon="1.75495">
        <ele>146</ele>
        <time>2010-01-01T00:00:00Z</time>
      </trkpt>
      <trkpt lat="48.62621" lon="1.75249">
        <ele>142</ele>
        <time>2010-01-01T00:00:00Z</time>
      </trkpt>
      <trkpt lat="48.6263" lon="1.75041">
        <ele>138</ele>
        <time>2010-01-01T00:00:00Z</time>
      </trkpt>
      <trkpt lat="48.62537" lon="1.74889">
        <ele>141</ele>
        <time>2010-01-01T00:00:00Z</time>
      </trkpt>
      <trkpt lat="48.62498" lon="1.74686">
        <ele>140</ele>
        <time>2010-01-01T00:00:00Z</time>
      </trkpt>
      <trkpt lat="48.62416" lon="1.74514">
        <ele>139</ele>
        <time>2010-01-01T00:00:00Z</time>
      </trkpt>
      <trkpt lat="48.62362" lon="1.7427">
        <ele>138</ele>
        <time>2010-01-01T00:00:00Z</time>
      </trkpt>
      <trkpt lat="48.62333" lon="1.7414">
        <ele>137</ele>
      </trkpt>
      <trkpt lat="48.62276" lon="1.74088">
        <ele>136</ele>
        <time>2010-01-01T00:00:00Z</time>
      </trkpt>
      <trkpt lat="48.62128" lon="1.74025">
        <ele>136</ele>
        <time>2010-01-01T00:00:00Z</time>
      </trkpt>
      <trkpt lat="48.62016" lon="1.73906">
        <ele>136</ele>
        <time>2010-01-01T00:00:00Z</time>
      </trkpt>
      <trkpt lat="48.61893" lon="1.73814">
        <ele>136</ele>
        <time>2010-01-01T00:00:00Z</time>
      </trkpt>
      <trkpt lat="48.61852" lon="1.73756">
        <ele>135</ele>
      </trkpt>
      <trkpt lat="48.61931" lon="1.73555">
        <ele>133</ele>
      </trkpt>
      <trkpt lat="48.62088" lon="1.73384">
        <ele>143</ele>
      </trkpt>
      <trkpt lat="48.62226" lon="1.73252">
        <ele>155</ele>
      </trkpt>
      <trkpt lat="48.62284" lon="1.73026">
        <ele>164</ele>
      </trkpt>
      <trkpt lat="48.62361" lon="1.72777">
        <ele>163</ele>
      </trkpt>
      <trkpt lat="48.6243" lon="1.72594">
        <ele>163</ele>
      </trkpt>
      <trkpt lat="48.62435" lon="1.72468">
        <ele>164</ele>
      </trkpt>
      <trkpt lat="48.62365" lon="1.723">
        <ele>160</ele>
      </trkpt>
      <trkpt lat="48.62336" lon="1.72125">
        <ele>161</ele>
      </trkpt>
      <trkpt lat="48.62416" lon="1.72078">
        <ele>158</ele>
      </trkpt>
      <trkpt lat="48.62368" lon="1.71875">
        <ele>162</ele>
        <time>2010-01-01T00:00:00Z</time>
      </trkpt>
      <trkpt lat="48.62364" lon="1.71676">
        <ele>157</ele>
        <time>2010-01-01T00:00:00Z</time>
      </trkpt>
      <trkpt lat="48.62347" lon="1.71561">
        <ele>153</ele>
      </trkpt>
      <trkpt lat="48.62782" lon="1.711">
        <ele>166</ele>
      </trkpt>
      <trkpt lat="48.62963" lon="1.71225">
        <ele>163</ele>
      </trkpt>
      <trkpt lat="48.63326" lon="1.71573">
        <ele>168</ele>
      </trkpt>
      <trkpt lat="48.63579" lon="1.70983">
        <ele>173</ele>
      </trkpt>
      <trkpt lat="48.6363" lon="1.70867">
        <ele>175</ele>
      </trkpt>
      <trkpt lat="48.63724" lon="1.70433">
        <ele>167</ele>
      </trkpt>
      <trkpt lat="48.63897" lon="1.7005">
        <ele>157</ele>
      </trkpt>
      <trkpt lat="48.63947" lon="1.69862">
        <ele>149</ele>
      </trkpt>
      <trkpt lat="48.63957" lon="1.69416">
        <ele>139</ele>
      </trkpt>
      <trkpt lat="48.64016" lon="1.69083">
        <ele>134</ele>
      </trkpt>
      <trkpt lat="48.64347" lon="1.69188">
        <ele>134</ele>
      </trkpt>
      <trkpt lat="48.64488" lon="1.69151">
        <ele>134</ele>
      </trkpt>
      <trkpt lat="48.64334" lon="1.69245">
        <ele>137</ele>
      </trkpt>
      <trkpt lat="48.64292" lon="1.69545">
        <ele>148</ele>
      </trkpt>
      <trkpt lat="48.64358" lon="1.69634">
        <ele>154</ele>
      </trkpt>
      <trkpt lat="48.64406" lon="1.69749">
        <ele>159</ele>
      </trkpt>
      <trkpt lat="48.64492" lon="1.69776">
        <ele>162</ele>
      </trkpt>
      <trkpt lat="48.6458" lon="1.6994">
        <ele>159</ele>
      </trkpt>
      <trkpt lat="48.64691" lon="1.70095">
        <ele>164</ele>
      </trkpt>
      <trkpt lat="48.64563" lon="1.7044">
        <ele>159</ele>
      </trkpt>
      <trkpt lat="48.64519" lon="1.70829">
        <ele>161</ele>
      </trkpt>
      <trkpt lat="48.64376" lon="1.71163">
        <ele>158</ele>
      </trkpt>
      <trkpt lat="48.6433" lon="1.71377">
        <ele>158</ele>
      </trkpt>
      <trkpt lat="48.64317" lon="1.71476">
        <ele>159</ele>
      </trkpt>
      <trkpt lat="48.645" lon="1.71629">
        <ele>162</ele>
      </trkpt>
      <trkpt lat="48.64618" lon="1.71794">
        <ele>163</ele>
      </trkpt>
      <trkpt lat="48.64606" lon="1.71886">
        <ele>164</ele>
      </trkpt>
      <trkpt lat="48.64621" lon="1.71953">
        <ele>164</ele>
      </trkpt>
      <trkpt lat="48.64743" lon="1.72081">
        <ele>165</ele>
      </trkpt>
      <trkpt lat="48.64887" lon="1.72265">
        <ele>167</ele>
      </trkpt>
      <trkpt lat="48.65069" lon="1.72421">
        <ele>171</ele>
      </trkpt>
      <trkpt lat="48.65133" lon="1.72524">
        <ele>172</ele>
      </trkpt>
      <trkpt lat="48.65315" lon="1.72962">
        <ele>174</ele>
      </trkpt>
      <trkpt lat="48.65395" lon="1.73254">
        <ele>179</ele>
      </trkpt>
      <trkpt lat="48.65475" lon="1.73568">
        <ele>178</ele>
      </trkpt>
      <trkpt lat="48.65517" lon="1.73665">
        <ele>176</ele>
      </trkpt>
      <trkpt lat="48.65732" lon="1.73949">
        <ele>173</ele>
      </trkpt>
      <trkpt lat="48.65654" lon="1.74196">
        <ele>172</ele>
      </trkpt>
      <trkpt lat="48.65595" lon="1.74366">
        <ele>171</ele>
      </trkpt>
      <trkpt lat="48.65456" lon="1.74663">
        <ele>175</ele>
        <time>2010-01-01T00:00:00Z</time>
      </trkpt>
      <trkpt lat="48.6537" lon="1.74823">
        <ele>175</ele>
        <time>2010-01-01T00:00:00Z</time>
      </trkpt>
      <trkpt lat="48.65214" lon="1.75113">
        <ele>174</ele>
        <time>2010-01-01T00:00:00Z</time>
      </trkpt>
      <trkpt lat="48.64982" lon="1.75556">
        <ele>179</ele>
        <time>2010-01-01T00:00:00Z</time>
      </trkpt>
      <trkpt lat="48.64948" lon="1.7566">
        <ele>179</ele>
      </trkpt>
      <trkpt lat="48.65015" lon="1.75823">
        <ele>175</ele>
        <time>2010-01-01T00:00:00Z</time>
      </trkpt>
      <trkpt lat="48.64876" lon="1.75702">
        <ele>175</ele>
        <time>2010-01-01T00:00:00Z</time>
      </trkpt>
      <trkpt lat="48.64756" lon="1.75574">
        <ele>177</ele>
        <time>2010-01-01T00:00:00Z</time>
      </trkpt>
      <trkpt lat="48.64616" lon="1.75782">
        <ele>164</ele>
        <time>2010-01-01T00:00:00Z</time>
      </trkpt>
      <trkpt lat="48.64515" lon="1.76002">
        <ele>164</ele>
        <time>2010-01-01T00:00:00Z</time>
      </trkpt>
      <trkpt lat="48.64443" lon="1.76222">
        <ele>152</ele>
        <time>2010-01-01T00:00:00Z</time>
      </trkpt>
      <trkpt lat="48.64363" lon="1.76339">
        <ele>146</ele>
      </trkpt>
      <trkpt lat="48.6426" lon="1.76185">
        <ele>145</ele>
      </trkpt>
      <trkpt lat="48.64022" lon="1.76317">
        <ele>143</ele>
      </trkpt>
      <trkpt lat="48.64013" lon="1.76459">
        <ele>141</ele>
      </trkpt>
      <trkpt lat="48.6391" lon="1.76659">
        <ele>145</ele>
      </trkpt>
      <trkpt lat="48.63808" lon="1.76727">
        <ele>144</ele>
      </trkpt>
      <trkpt lat="48.63701" lon="1.76677">
        <ele>141</ele>
      </trkpt>
      <trkpt lat="48.63526" lon="1.76563">
        <ele>141</ele>
      </trkpt>
      <trkpt lat="48.63432" lon="1.76577">
        <ele>141</ele>
      </trkpt>
      <trkpt lat="48.63366" lon="1.76833">
        <ele>148</ele>
      </trkpt>
      <trkpt lat="48.63329" lon="1.76906">
        <ele>153</ele>
      </trkpt>
      <trkpt lat="48.6322" lon="1.76653">
        <ele>166</ele>
      </trkpt>
    </trkseg>
  </trk>
</gpx>